Regional Weather Roundup
Issued by NWS

Home | Current Version | Previous Version | Graphics & Text | Print | Product List | Glossary On
Versions: 1 2 3 4 5 6 7 8 9 10 11 12 13 14 15 16 17 18 19 20 21 22 23 24 25 26 27 28 29 30 31 32 33 34 35 36 37 38 39 40 41 42 43 44 45 46 47 48 49 50
000
ASUS45 KCYS 250310
RWRWY

WYOMING REGIONAL WEATHER ROUNDUP
NATIONAL WEATHER SERVICE CHEYENNE WY
800 PM MST WED DEC 24 2014

NOTE:  "FAIR" INDICATES FEW OR NO CLOUDS BELOW 12,000 FEET
WITH NO SIGNIFICANT WEATHER AND/OR OBSTRUCTIONS TO VISIBILITY.

WYZ001-250400-
YELLOWSTONE NATIONAL PARK

CITY           SKY/WX    TMP DP  RH WIND       PRES   REMARKS
LK YELLOWSTONE   N/A     21  19  92 CALM      29.45F
W YELLOWSTONE  NOT AVBL

$$
WYZ002>013-054>058-071-098>099-250400-
NORTHERN WYOMING

CITY           SKY/WX    TMP DP  RH WIND       PRES   REMARKS
JACKSON        NOT AVBL
CODY           CLOUDY    28  25  86 SE3       29.39F
GREYBULL       CLOUDY    28  22  78 CALM      29.42F
WORLAND        CLOUDY    21  15  78 SE6       29.42F WCI  13
SHERIDAN       CLOUDY    34  27  75 CALM      29.39F
BUFFALO        CLOUDY    36  23  59 N7        29.38F WCI  30
GILLETTE       CLOUDY    38  25  59 SW20      29.38F WCI  28
HULETT           N/A    N/A N/A N/A MISG        N/A
NEWCASTLE      FAIR      34  21  60 E5        29.46F WCI  30

$$
WYZ014>020-022>026-101>103-250400-
CENTRAL WYOMING

CITY           SKY/WX    TMP DP  RH WIND       PRES   REMARKS
BIG PINEY      MOCLDY    20  17  88 N5        29.53F WCI  13
PINEDALE       CLOUDY    25  25 100 E7        29.53F WCI  17
DUBOIS         NOT AVBL
LANDER         FAIR      23  16  74 N7        29.40F WCI  15
RIVERTON       FAIR      21  15  78 NW8       29.42F WCI  11
CASPER         CLOUDY    34  20  56 SW30G40   29.45F WCI  20
DOUGLAS        CLOUDY    42  21  43 W12G20    29.44F

$$
WYZ021-027>030-104>119-250400-
SOUTHERN WYOMING

CITY           SKY/WX    TMP DP  RH WIND       PRES   REMARKS
EVANSTON       LGT SNOW  33  29  85 SW24G32   29.54F FOG     WCI  20
KEMMERER       CLOUDY    32  27  80 SW14      29.53F WCI  22
FORT BRIDGER   FAIR      36  28  72 W14       29.56F WCI  27
ROCK SPRINGS   MOCLDY    28  18  66 SE12      29.55F WCI  18
DIXON          CLOUDY    31  17  55 SW13G20   29.70F WCI  21
RAWLINS        CLOUDY    30  16  56 SW21G28   29.59F WCI  17
SARATOGA       CLOUDY    34  21  60 SW16G23   29.61F WCI  23
LARAMIE        FAIR      29  17  61 W22       29.54F WCI  15
CHEYENNE       FAIR      39  19  44 W10       29.52F WCI  32
TORRINGTON     FAIR      45  22  40 W25G31    29.46F
PINE BLUFFS    FAIR      28  19  69 S3        29.53F

$$


USA.gov is the U.S. government's official web portal to all federal, state and local government web resources and services.